Location: Norwich
(42.5310°N, 75.5240°W)
Time: 07:49:38
(UTC-04:00)

Envisat - Pass Details

Date: 30 March 2019
Orbit: 764 x 766 km, 98.2° (Epoch: 24 April)

Event Time Altitude Azimuth Distance (km) Brightness Sun altitude
Rises 19:40:17 0° 169° (S) 3,218 6.0 -3.5°
Reaches altitude 10° 19:42:35 10° 171° (S) 2,296 5.3 -3.9°
Maximum altitude 19:47:39 77° 258° (WSW) 789 3.3 -4.9°
Drops below altitude 10° 19:52:45 10° 344° (NNW) 2,311 5.9 -5.8°
Sets 19:55:04 0° 346° (NNW) 3,242 6.6 -6.2°
